Wind_Speed
31 31 31 31 31 31 31 31 31 32 31 31 32 32 33 33 32 32 32 32 32 32 32 32 33 34 34 35 35 34 35 36 37 37 37 37 37 37
30 30 31 31 31 31 31 31 32 31 31 30 30 31 32 32 32 31 31 32 31 33 32 32 32 34 34 34 33 33 33 34 35 35 35 34 34 34
30 30 30 31 31 31 31 30 30 31 30 29 29 30 31 30 30 30 30 31 31 30 31 31 31 32 33 33 32 32 32 32 32 32 32 32 31 31
31 30 30 30 30 29 28 28 28 28 29 29 29 29 29 29 29 30 29 28 28 28 29 30 31 31 30 30 30 30 30 30 30 29 29 29 28 28
31 30 30 29 28 27 27 26 26 27 27 27 27 28 28 28 28 27 27 27 27 27 28 28 29 30 29 28 27 26 26 25 25 25 24 25 25 25
30 30 29 29 28 27 27 26 26 26 26 26 26 27 27 26 26 25 26 26 25 26 26 26 26 26 25 24 23 23 22 22 22 22 23 23 23 23
28 28 27 27 26 26 26 25 24 24 24 24 24 24 24 25 24 24 24 24 24 25 24 24 24 23 21 20 19 19 20 20 21 22 22 22 21 21
26 25 24 24 23 23 23 22 21 21 22 22 21 21 22 22 21 22 22 22 22 22 22 21 20 18 17 16 17 17 18 19 20 20 20 19 18 19
22 22 21 21 21 21 21 20 19 19 19 19 19 19 19 19 19 19 19 20 20 19 18 17 15 15 14 14 15 16 16 17 17 17 16 17 17 17
20 19 19 18 19 18 18 17 16 15 15 16 16 16 16 16 16 15 15 15 16 15 14 12 12 12 12 13 14 14 14 15 15 15 15 15 16 16
17 17 16 15 15 15 15 14 14 14 13 13 13 13 13 13 13 12 12 12 12 12 11 10 10 10 11 11 12 12 12 12 12 13 14 15 15 16
16 15 15 14 13 13 13 12 12 12 12 12 12 12 11 11 11 11 10 10 9 9 9 8 9 9 9 9 9 10 10 11 12 13 14 15 16 17
13 13 13 12 12 11 11 10 9 10 11 10 10 9 9 8 9 9 9 8 7 7 6 6 6 6 7 7 7 8 10 11 12 13 14 16 17 18
10 10 10 10 10 10 9 9 9 8 8 7 7 6 6 6 6 5 5 4 4 4 3 3 4 4 5 6 7 9 10 11 12 14 16 17 18 20
8 9 9 9 9 9 8 8 8 8 8 7 6 5 5 5 4 4 4 3 2 2 2 2 2 4 5 7 8 9 11 12 14 15 17 19 20 22
7 9 9 8 8 8 8 7 8 8 7 7 7 6 5 5 5 5 4 3 2 1 0 1 3 4 5 7 9 11 12 14 16 17 19 20 22 23
7 9 9 9 9 9 9 9 9 9 9 8 7 7 7 7 6 5 4 4 3 2 2 2 3 4 6 9 10 12 14 15 17 19 20 22 23 25
9 9 10 10 11 11 11 11 11 11 10 9 9 8 8 7 7 6 6 5 4 3 3 4 5 6 8 10 12 14 15 17 18 20 22 23 26 28
10 11 12 12 12 13 13 13 13 12 11 11 10 10 9 9 8 7 6 5 4 4 4 5 7 8 10 12 14 16 17 19 20 22 24 25 27 29
12 12 13 13 14 14 15 15 14 13 13 12 11 10 10 9 8 6 5 5 5 5 6 8 9 11 13 14 16 17 19 20 22 24 26 28 30 32
13 12 13 14 15 15 15 15 15 14 13 12 11 10 9 7 6 6 5 5 5 6 8 10 11 13 14 15 17 19 21 23 25 27 29 31 32 34
13 14 14 15 15 16 15 15 14 13 12 11 10 8 7 6 6 5 5 6 7 8 10 11 13 14 16 17 19 21 22 25 27 29 31 33 35 37
14 15 15 15 16 16 15 14 13 12 11 10 9 8 6 5 5 5 6 7 8 10 11 13 14 16 18 20 22 23 25 27 29 31 33 36 38 40
Wind_Direction
264 265 267 268 269 270 268 265 264 263 262 263 262 261 261 263 263 263 264 266 267 266 266 266 266 266 268 272 273 274 276 277 279 282 283 284 285 287
265 266 267 268 268 269 268 265 263 262 262 262 261 260 262 264 265 264 265 266 268 268 266 267 269 269 269 271 272 275 278 280 282 284 285 287 287 289
265 265 266 267 268 269 268 265 262 260 261 261 261 261 263 264 266 266 268 267 269 271 269 270 271 272 272 274 276 280 283 286 285 285 287 289 289 292
265 265 266 266 266 266 266 264 263 261 261 260 260 260 261 262 264 267 269 269 272 273 273 273 277 280 282 282 281 284 286 288 287 287 289 289 291 294
265 265 265 263 264 263 263 263 262 261 260 261 260 259 260 262 264 266 268 270 273 274 276 277 280 281 284 285 286 287 288 291 291 292 294 297 299 300
265 265 264 262 262 262 262 261 261 261 261 261 261 259 260 261 263 266 268 270 273 275 278 280 281 282 284 286 288 289 290 290 294 297 300 302 304 306
265 264 263 262 261 261 260 260 261 261 260 260 261 259 258 260 263 264 266 269 272 276 280 282 283 284 285 289 292 293 293 295 297 302 304 306 308 308
265 262 261 260 259 258 258 259 259 258 259 259 260 260 260 261 262 265 267 271 275 278 280 282 284 285 287 293 295 297 301 303 302 306 310 311 312 313
261 259 258 257 256 255 253 253 256 256 255 256 257 258 260 262 264 266 268 273 276 277 278 279 281 287 288 291 297 302 305 307 310 313 314 316 318 319
261 259 257 255 253 251 249 249 252 253 253 254 255 255 256 260 264 267 270 272 272 273 274 278 283 288 291 296 301 304 306 308 311 314 317 319 320 320
259 258 255 254 251 248 247 248 249 248 250 252 250 251 251 254 254 258 263 267 271 270 274 279 282 285 292 299 303 307 310 313 316 319 320 321 320 320
253 250 248 247 246 244 244 244 243 244 245 246 247 249 250 252 249 250 256 260 261 265 271 274 277 286 296 302 307 311 314 317 320 321 322 321 321 320
247 243 238 236 234 233 234 236 233 232 233 237 238 237 237 242 249 253 248 244 251 258 262 271 283 293 302 307 313 318 321 322 323 323 322 322 321 321
234 230 227 223 220 218 216 215 214 215 216 216 215 218 221 227 232 225 217 218 231 242 251 274 290 300 308 314 319 323 324 323 323 324 324 323 323 323
220 214 207 202 199 197 200 204 200 201 197 193 192 192 189 186 182 178 179 184 198 222 253 276 301 318 323 325 326 326 326 326 325 324 324 323 323 323
197 185 179 176 175 177 181 183 177 175 176 175 170 165 160 158 157 160 164 167 165 165 198 337 337 333 331 330 329 328 326 325 324 324 324 324 323 322
165 164 166 168 170 169 166 163 158 155 153 152 150 150 148 144 142 142 138 130 114 95 67 29 3 347 339 334 332 330 328 326 325 325 325 324 323 322
152 153 154 155 154 153 151 149 146 145 146 144 142 141 138 132 127 119 113 104 93 73 41 15 359 348 342 338 336 335 332 331 329 328 327 326 324 324
141 141 142 143 144 145 145 143 140 139 139 136 131 127 122 120 117 110 101 90 73 53 31 11 358 349 342 339 336 334 333 332 330 329 328 327 327 326
132 133 133 135 136 137 136 135 133 133 131 129 125 122 119 116 111 103 91 75 54 32 14 2 354 348 343 341 338 336 334 333 331 330 329 328 327 325
128 130 129 128 130 131 129 128 128 127 126 125 124 122 118 113 104 93 75 52 31 15 2 355 350 346 343 341 339 337 336 335 333 332 330 329 328 327
125 126 126 127 128 128 127 126 126 125 124 124 122 117 111 104 92 74 51 31 16 4 356 351 349 347 344 342 340 339 337 335 334 333 331 330 329 328
122 124 125 127 127 127 127 126 123 121 119 117 113 109 101 90 72 51 32 16 5 358 353 350 348 345 342 340 339 337 336 335 334 333 332 330 329 328
Height
5803 5803 5804 5804 5804 5804 5804 5804 5805 5805 5806 5807 5807 5807 5808 5808 5809 5809 5810 5810 5811 5810 5810 5810 5810 5810 5809 5809 5808 5807 5805 5804 5802 5801 5799 5796 5794 5792
5795 5795 5796 5796 5796 5796 5796 5796 5796 5797 5798 5799 5799 5800 5801 5801 5802 5802 5802 5803 5803 5803 5803 5803 5802 5802 5801 5801 5799 5798 5797 5795 5794 5792 5790 5788 5786 5783
5787 5787 5788 5788 5788 5788 5788 5788 5788 5789 5790 5791 5792 5793 5794 5794 5795 5795 5796 5796 5796 5797 5796 5796 5795 5794 5793 5793 5792 5790 5789 5788 5786 5784 5782 5780 5778 5776
5779 5779 5780 5780 5780 5780 5780 5781 5781 5782 5783 5784 5785 5786 5787 5787 5788 5789 5789 5790 5790 5790 5789 5789 5788 5787 5786 5785 5784 5783 5782 5781 5779 5777 5775 5773 5771 5769
5770 5771 5771 5772 5772 5773 5773 5774 5774 5775 5776 5777 5778 5779 5780 5781 5782 5783 5783 5783 5784 5783 5783 5782 5782 5781 5780 5779 5778 5777 5776 5774 5773 5771 5769 5767 5765 5763
5762 5762 5763 5764 5765 5765 5766 5767 5767 5768 5769 5770 5771 5772 5773 5774 5775 5776 5777 5777 5778 5777 5777 5777 5776 5775 5774 5773 5772 5771 5770 5769 5767 5766 5764 5762 5760 5757
5753 5754 5755 5756 5757 5758 5759 5760 5761 5761 5762 5763 5765 5766 5767 5768 5769 5770 5771 5771 5772 5771 5771 5771 5771 5770 5769 5768 5767 5766 5765 5764 5763 5761 5759 5756 5754 5752
5745 5746 5747 5749 5750 5751 5752 5753 5755 5756 5757 5758 5759 5760 5761 5762 5763 5764 5765 5766 5766 5766 5766 5766 5765 5764 5764 5763 5763 5762 5761 5759 5758 5756 5754 5751 5749 5747
5739 5740 5741 5742 5743 5745 5746 5748 5749 5750 5751 5752 5753 5755 5756 5757 5758 5759 5760 5761 5761 5761 5761 5761 5760 5760 5760 5760 5759 5758 5757 5755 5753 5751 5749 5747 5745 5743
5733 5734 5735 5737 5738 5739 5741 5743 5744 5745 5746 5747 5749 5750 5751 5752 5753 5754 5755 5756 5756 5756 5757 5757 5757 5757 5756 5756 5755 5754 5753 5752 5750 5748 5746 5744 5742 5739
5728 5729 5731 5732 5734 5735 5737 5738 5740 5741 5742 5744 5745 5746 5747 5748 5749 5751 5752 5752 5753 5753 5753 5754 5754 5754 5753 5753 5752 5751 5750 5748 5747 5745 5743 5741 5739 5736
5723 5725 5727 5728 5730 5732 5733 5735 5736 5738 5739 5740 5741 5743 5744 5745 5746 5747 5748 5749 5750 5750 5750 5751 5751 5751 5751 5750 5749 5748 5747 5745 5744 5742 5740 5738 5735 5732
5719 5721 5723 5725 5726 5728 5730 5732 5733 5735 5736 5737 5739 5740 5741 5742 5743 5744 5746 5747 5748 5748 5749 5749 5749 5749 5748 5748 5747 5746 5744 5743 5741 5739 5737 5735 5732 5729
5716 5718 5720 5722 5724 5726 5728 5729 5731 5733 5734 5736 5737 5738 5739 5741 5742 5743 5744 5745 5746 5747 5747 5747 5747 5747 5746 5746 5745 5744 5742 5740 5738 5736 5734 5731 5728 5725
5714 5716 5718 5720 5722 5724 5726 5728 5729 5731 5733 5735 5736 5737 5739 5740 5741 5742 5743 5744 5744 5745 5745 5746 5746 5746 5745 5744 5743 5742 5740 5738 5736 5733 5730 5727 5724 5721
5713 5714 5717 5719 5721 5723 5725 5727 5729 5731 5733 5734 5736 5737 5738 5740 5741 5742 5743 5744 5744 5745 5745 5745 5745 5745 5744 5743 5741 5740 5738 5735 5733 5730 5727 5724 5720 5716
5713 5714 5716 5719 5721 5723 5725 5727 5729 5731 5733 5735 5736 5738 5739 5740 5741 5742 5743 5743 5744 5745 5745 5745 5744 5743 5742 5741 5739 5737 5735 5732 5729 5726 5723 5719 5715 5711
5714 5715 5717 5719 5721 5723 5725 5727 5730 5732 5734 5736 5737 5738 5740 5741 5742 5743 5743 5744 5744 5744 5744 5744 5743 5742 5741 5739 5737 5734 5731 5729 5726 5722 5718 5715 5711 5706
5715 5717 5719 5721 5723 5725 5727 5729 5731 5733 5735 5737 5738 5740 5741 5742 5743 5744 5744 5745 5745 5744 5744 5743 5742 5740 5739 5737 5734 5731 5728 5725 5721 5718 5714 5710 5705 5700
5718 5719 5721 5723 5725 5727 5729 5731 5733 5735 5737 5739 5740 5741 5742 5743 5744 5745 5745 5745 5745 5744 5743 5742 5740 5738 5736 5734 5731 5728 5724 5721 5717 5713 5709 5704 5699 5694
5721 5722 5724 5726 5728 5730 5732 5734 5736 5738 5739 5741 5742 5743 5744 5745 5745 5745 5745 5745 5744 5743 5742 5740 5738 5736 5733 5731 5728 5725 5721 5717 5712 5708 5703 5698 5693 5687
5724 5726 5727 5729 5731 5733 5735 5737 5739 5740 5742 5743 5744 5745 5746 5746 5746 5746 5746 5745 5744 5742 5741 5738 5736 5734 5731 5728 5725 5721 5717 5713 5708 5703 5697 5691 5685 5679
5728 5729 5731 5733 5735 5736 5738 5740 5741 5743 5744 5745 5746 5746 5747 5747 5746 5746 5745 5744 5743 5741 5739 5737 5734 5731 5728 5725 5721 5717 5713 5708 5703 5698 5692 5685 5678 5671